[[{"header":{"parameterUnit":"m.s-1","parameterCategory":1,"la1":30.2991,"la2":30.254,"lo1":-89.0895,"lo2":-89.0444,"dy":0.0017,"dx":0.0017,"nx":28,"ny":28,"refTime":"2024-06-29T09:00:00:Z","depth":0,"parameterNumber":2,"parameterNumberName":"U-component_of_WINDS"},"data":[0,0,0,0,0,0,0,0,0,0,0,0,0,0,0,0,0,0,0,0,0,0,0,0,0,0,0,0,0,0,0,0,0,0,0,0,0,0,0,0,0,0,0,0,0,0,0,0,0,0,0,0,0,0,0,0,0,0,-1.9257,-1.9257,0,-1.9251,-1.9251,-1.9251,-1.9192,-1.919,-1.9189,-1.9188,-1.9183,-1.9184,-1.9186,0,0,0,0,0,0,0,0,0,0,0,0,0,-1.9222,-1.9223,-1.9257,-1.9257,-1.9257,-1.9251,-1.9251,-1.9251,-1.9192,-1.919,-1.9189,-1.9187,-1.9183,-1.9184,-1.9186,0,0,0,0,0,0,0,0,0,0,0,0,0,-1.9229,-1.9224,-1.9257,-1.9227,-1.9224,-1.9251,-1.9251,-1.9251,-1.9192,-1.919,-1.9188,-1.9186,-1.9182,-1.9184,-1.9186,-1.9241,0,0,-1.9192,-1.9192,0,0,0,0,0,0,0,0,-1.9229,-1.923,-1.9232,-1.9229,-1.9226,-1.922,-1.9237,-1.9248,-1.9193,-1.9205,-1.9187,-1.9185,-1.9197,-1.9198,-1.9201,-1.9241,-1.9241,-1.9192,-1.9193,-1.9194,-1.9194,0,0,0,0,0,0,0,-1.9228,-1.923,-1.9255,-1.9232,-1.9228,-1.9215,-1.9213,-1.9238,-1.9213,-1.9203,-1.9199,-1.9199,-1.9195,-1.92,-1.9201,-1.9241,-1.9192,-1.9193,-1.9195,-1.9195,-1.9327,-1.9329,0,0,0,0,0,0,-1.9232,-1.923,-1.9255,-1.9255,-1.9222,-1.9217,-1.9216,-1.9224,-1.9213,-1.9209,-1.9201,-1.9196,-1.9198,-1.9199,-1.9201,-1.9264,-1.9194,-1.9195,-1.9197,-1.9324,-1.9327,-1.933,0,0,0,0,0,0,-1.9231,-1.9234,-1.9255,-1.9241,-1.9243,-1.922,-1.923,-1.9225,-1.9229,-1.9211,-1.9207,-1.921,-1.9196,-1.9198,-1.9232,-1.9264,-1.9196,-1.9198,-1.9322,-1.9325,-1.9329,-1.9393,0,0,0,0,0,0,-1.923,-1.9234,-1.9254,-1.9242,-1.9244,-1.9286,-1.9232,-1.9227,-1.9232,-1.9226,-1.9218,-1.9215,-1.9194,-1.9229,-1.9234,-1.9265,-1.9199,-1.9319,-1.9323,-1.9327,-1.9388,-1.9399,-1.9408,0,0,0,0,0,-1.9229,-1.9273,-1.9256,-1.9259,-1.9268,-1.9288,-1.9289,-1.9264,-1.9235,-1.9256,-1.9244,-1.9215,-1.926,-1.9233,-1.9238,-1.927,-1.9316,-1.9322,-1.9327,-1.9384,-1.9397,-1.9407,0,0,0,0,0,0,-1.9291,-1.9271,-1.9251,-1.9293,-1.9292,-1.9278,-1.9302,-1.9278,-1.9286,-1.928,-1.925,-1.9248,-1.9287,-1.9282,-1.9253,-1.9324,-1.9283,-1.929,-1.9325,-1.9337,-1.9346,-1.9346,-1.9201,0,0,0,0,0,-1.9309,-1.9326,-1.9308,-1.9346,-1.9347,-1.9325,-1.9333,-1.9313,-1.9312,-1.9312,-1.9302,-1.9303,-1.9317,-1.9327,-1.9339,-1.9388,-1.9385,-1.9413,-1.9422,-1.943,-1.9436,-1.9462,-1.9474,-1.9347,-1.9347,-1.9347,0,0,-1.9347,-1.9339,-1.9351,-1.9358,-1.9356,-1.9374,-1.9325,-1.9347,-1.936,-1.9315,-1.9346,-1.934,-1.9338,-1.938,-1.9398,-1.9377,-1.9471,-1.9437,-1.9444,-1.9445,-1.9469,-1.9481,-1.9491,-1.9351,-1.935,-1.935,0,0,-1.9426,-1.9421,-1.9452,-1.945,-1.9447,-1.9432,-1.944,-1.9429,-1.9423,-1.9454,-1.942,-1.9437,-1.9462,-1.9462,-1.9466,-1.9546,-1.952,-1.9551,-1.9601,-1.9627,-1.9637,-1.9646,-1.9674,-1.9685,-1.9557,-1.9557,-1.9558,0,-1.9473,-1.9499,-1.9471,-1.9495,-1.95,-1.9459,-1.9491,-1.9492,-1.9493,-1.9497,-1.9474,-1.9505,-1.9501,-1.9542,-1.9562,-1.9567,-1.9575,-1.9551,-1.9638,-1.9646,-1.9654,-1.968,-1.9691,-1.9561,-1.9561,-1.956,-1.956,0,-1.9558,-1.9576,-1.9602,-1.9603,-1.9611,-1.9639,-1.9617,-1.9628,-1.9609,-1.9598,-1.963,-1.9624,-1.9634,-1.9643,-1.9625,-1.9682,-1.967,-1.9643,-1.9601,-1.967,-1.9695,-1.9705,-1.9567,-1.9565,-1.9564,-1.9563,0,0,-1.9673,-1.9659,-1.9669,-1.9669,-1.9663,-1.9678,-1.9705,-1.9714,-1.9724,-1.9727,-1.9749,-1.9772,-1.9747,-1.9751,-1.9733,-1.9756,-1.982,-1.9726,-1.9726,-1.9743,-1.9883,-1.9902,-1.9915,-1.9803,-1.9805,-1.9806,-1.9883,0,-1.9748,-1.9791,-1.9768,-1.9815,-1.9832,-1.9795,-1.9818,-1.9818,-1.9808,-1.9822,-1.9812,-1.9828,-1.9795,-1.9797,-1.9818,-1.9808,-1.9847,-1.9802,-1.9823,-1.9824,-1.9823,-1.9927,-1.9948,-2.002,-1.9892,-1.9894,-1.9895,0,-1.9841,-1.9846,-1.9895,-1.9886,-1.9892,-1.9914,-1.9921,-1.9935,-1.9934,-1.9925,-1.9931,-1.9907,-1.9934,-1.9894,-1.9931,-1.9901,-1.9909,-1.9905,-1.9908,-1.9908,-1.9863,-1.993,-2.0043,-2.0053,-1.991,-1.9909,-1.9908,0,-1.9919,-1.994,-1.9971,-1.9973,-1.9963,-1.9979,-1.9976,-1.9973,-1.9981,-1.9988,-1.9992,-2.0003,-2.0008,-2.0018,-1.9998,-1.9971,-2.0038,-1.9996,-2.0032,-2.0032,-2.0046,-2.0046,-2.0161,-2.0053,-2.0053,-2.0053,-2.0053,0,-2.0005,-2.0036,-2.0006,-2.0026,-2.006,-2.0034,-2.0069,-2.0062,-2.006,-2.0078,-2.0047,-2.0065,-2.0039,-2.0055,-2.0041,-2.0073,-2.0076,-2.0071,-2.0066,-2.0073,-2.0073,-2.0076,-2.0071,-2.0056,-2.0055,-2.0055,-2.0054,0,-2.0098,-2.0079,-2.0111,-2.01,-2.0098,-2.0123,-2.0114,-2.0132,-2.0121,-2.0144,-2.0148,-2.0131,-2.0148,-2.013,-2.0146,-2.0137,-2.0181,-2.0169,-2.018,-2.0177,-2.0213,-2.021,-2.0334,-2.0349,-2.0232,-2.0234,-2.0234,0,-2.0153,-2.0175,-2.0167,-2.0176,-2.0175,-2.0191,-2.0198,-2.0174,-2.0183,-2.0185,-2.0203,-2.0217,-2.0227,-2.0257,-2.0246,-2.0259,-2.0247,-2.029,-2.0249,-2.0255,-2.0247,-2.0246,-2.0248,-2.0298,-2.0299,-2.03,-2.0301,0,-2.0252,-2.0242,-2.0253,-2.0262,-2.0271,-2.0277,-2.0281,-2.0291,-2.0266,-2.0278,-2.0295,-2.0303,-2.0319,-2.0334,-2.0344,-2.0342,-2.0318,-2.0315,-2.0323,-2.033,-2.0335,-2.0332,-2.0202,-2.0312,-2.0311,-2.031,-2.0309,-2.0309,-2.0328,-2.0346,-2.0343,-2.0357,-2.0357,-2.0361,-2.0377,-2.0368,-2.0381,-2.0392,-2.0378,-2.0399,-2.0398,-2.0408,-2.041,-2.0426,-2.0408,-2.0421,-2.0424,-2.0428,-2.0433,-2.0333,-2.0428,-2.0428,-2.0428,-2.0427,-2.0427,0,-2.0425,-2.0422,-2.0434,-2.044,-2.0451,-2.0427,-2.043,-2.0442,-2.046,-2.0461,-2.0472,-2.0492,-2.0507,-2.0498,-2.051,-2.0526,-2.0515,-2.053,-2.0528,-2.0528,-2.0448,-2.0439,-2.0538,-2.0538,-2.0538,-2.0538,-2.0538,-2.0538,-2.0477,-2.0508,-2.0498,-2.0528,-2.0524,-2.0544,-2.0547,-2.0552,-2.0552,-2.0575,-2.0587,-2.0581,-2.0579,-2.0591,-2.0604,-2.0601,-2.0607,-2.0626,-2.0619,-2.0544,-2.0533,-2.0523,-2.0514,-2.0627,-2.0627,-2.0697,-2.0698,-2.0698]},{"header":{"parameterUnit":"m.s-1","parameterCategory":1,"la1":30.2991,"la2":30.254,"lo1":-89.0895,"lo2":-89.0444,"dy":0.0017,"dx":0.0017,"nx":28,"ny":28,"refTime":"2024-06-29T09:00:00:Z","depth":0,"parameterNumber":3,"parameterNumberName":"V-component_of_WINDS"},"data":[0,0,0,0,0,0,0,0,0,0,0,0,0,0,0,0,0,0,0,0,0,0,0,0,0,0,0,0,0,0,0,0,0,0,0,0,0,0,0,0,0,0,0,0,0,0,0,0,0,0,0,0,0,0,0,0,0,0,4.7986,4.7986,0,4.8008,4.8008,4.8008,4.8027,4.8027,4.8028,4.8028,4.8047,4.8047,4.8047,0,0,0,0,0,0,0,0,0,0,0,0,0,4.7959,4.7959,4.7986,4.7986,4.7987,4.8008,4.8008,4.8009,4.8027,4.8027,4.8028,4.8028,4.8047,4.8047,4.8047,0,0,0,0,0,0,0,0,0,0,0,0,0,4.7975,4.7959,4.7986,4.7999,4.8,4.8008,4.8008,4.8009,4.8027,4.8027,4.8028,4.8028,4.8047,4.8047,4.8047,4.8044,0,0,4.8049,4.8049,0,0,0,0,0,0,0,0,4.7974,4.7976,4.7996,4.7998,4.7999,4.8015,4.8006,4.802,4.8027,4.8017,4.8028,4.8028,4.8036,4.8037,4.804,4.8045,4.8045,4.8049,4.8049,4.8049,4.8049,0,0,0,0,0,0,0,4.7973,4.7975,4.7995,4.7997,4.7998,4.8003,4.8005,4.8008,4.8024,4.8018,4.8019,4.8021,4.8037,4.804,4.8041,4.8046,4.8049,4.8049,4.805,4.805,4.805,4.805,0,0,0,0,0,0,4.797,4.7974,4.7994,4.7995,4.7987,4.8003,4.8006,4.801,4.8024,4.8027,4.8021,4.8022,4.8039,4.804,4.8042,4.804,4.8049,4.805,4.805,4.805,4.805,4.805,0,0,0,0,0,0,4.7969,4.7971,4.7993,4.7985,4.7988,4.8003,4.8007,4.801,4.8013,4.8027,4.8029,4.8022,4.8039,4.8041,4.8044,4.804,4.805,4.805,4.8051,4.805,4.805,4.8034,0,0,0,0,0,0,4.7968,4.7971,4.797,4.7985,4.7988,4.7995,4.8007,4.801,4.8015,4.8016,4.8028,4.803,4.804,4.8043,4.8044,4.8041,4.8051,4.8051,4.805,4.805,4.8035,4.8034,4.8032,0,0,0,0,0,4.7967,4.7964,4.797,4.7972,4.7988,4.7995,4.7997,4.8009,4.8014,4.8013,4.8022,4.803,4.8041,4.8043,4.8045,4.8042,4.8051,4.8051,4.805,4.8036,4.8034,4.8032,0,0,0,0,0,0,4.7946,4.7966,4.7973,4.7974,4.7983,4.7998,4.7997,4.8006,4.8012,4.8013,4.8027,4.8029,4.8031,4.8036,4.8039,4.804,4.8047,4.8047,4.8036,4.8034,4.8033,4.8031,4.8051,0,0,0,0,0,4.7942,4.7947,4.7964,4.7963,4.7968,4.7982,4.7985,4.7994,4.8003,4.8006,4.8015,4.8023,4.8029,4.8032,4.8037,4.8037,4.804,4.8035,4.8034,4.8032,4.8032,4.8033,4.8032,4.8048,4.8048,4.8048,0,0,4.7933,4.7944,4.7946,4.7959,4.7967,4.7972,4.7984,4.7988,4.7992,4.8007,4.801,4.8017,4.8027,4.8029,4.803,4.8033,4.8029,4.8032,4.803,4.8031,4.8033,4.8031,4.803,4.8047,4.8047,4.8047,0,0,4.7919,4.7927,4.7929,4.7937,4.795,4.796,4.796,4.7975,4.798,4.7985,4.7996,4.8001,4.8009,4.8016,4.8021,4.8012,4.802,4.8013,4.8005,4.8006,4.8005,4.8004,4.8001,4.8,4.8013,4.8013,4.8013,0,4.7905,4.7914,4.7928,4.7932,4.7938,4.7954,4.7955,4.7962,4.7975,4.7979,4.7983,4.7996,4.8003,4.8008,4.8006,4.8009,4.801,4.8012,4.8004,4.8003,4.8002,4.8,4.7999,4.8012,4.8012,4.8012,4.8012,0,4.7897,4.7903,4.7902,4.7917,4.7923,4.7925,4.794,4.7944,4.7953,4.7962,4.7967,4.7977,4.7986,4.7987,4.7995,4.7993,4.7995,4.8002,4.8009,4.8,4.7998,4.7997,4.8011,4.8011,4.8011,4.8012,0,0,4.7868,4.7893,4.7892,4.79,4.7916,4.7921,4.7925,4.7935,4.7938,4.7947,4.7951,4.7959,4.7966,4.7972,4.798,4.7981,4.7975,4.7988,4.7989,4.7986,4.7975,4.797,4.7969,4.7981,4.7981,4.7981,4.7974,0,4.7857,4.7866,4.788,4.7884,4.7891,4.7907,4.791,4.792,4.793,4.7936,4.7946,4.7952,4.796,4.7964,4.7966,4.7976,4.7973,4.7976,4.7984,4.7984,4.7981,4.7968,4.7962,4.7956,4.7974,4.7974,4.7973,0,4.7844,4.7855,4.786,4.7878,4.7881,4.7884,4.7896,4.7901,4.7914,4.792,4.7928,4.7938,4.7943,4.795,4.7958,4.796,4.7964,4.797,4.797,4.7971,4.7978,4.7969,4.7954,4.7953,4.7972,4.7972,4.7973,0,4.7824,4.7839,4.7845,4.7851,4.7871,4.7873,4.7882,4.7895,4.79,4.791,4.7914,4.7924,4.7929,4.7936,4.7949,4.7953,4.7955,4.7963,4.7961,4.7961,4.796,4.796,4.7946,4.7963,4.7963,4.7963,4.7963,0,4.781,4.7812,4.7836,4.784,4.7844,4.786,4.7863,4.7873,4.7885,4.7891,4.7904,4.7909,4.7926,4.7932,4.7942,4.7948,4.7949,4.7955,4.7958,4.7954,4.7953,4.7957,4.7957,4.7963,4.7963,4.7963,4.7963,0,4.7787,4.7803,4.7811,4.7831,4.7836,4.7838,4.7855,4.7858,4.787,4.7877,4.7879,4.7896,4.7905,4.7919,4.7931,4.7938,4.7941,4.7945,4.7938,4.7939,4.7936,4.7937,4.7924,4.7923,4.794,4.794,4.794,0,4.7777,4.778,4.7801,4.7807,4.7815,4.7823,4.783,4.7847,4.7854,4.7869,4.7871,4.7882,4.7891,4.7904,4.7917,4.7927,4.7932,4.7927,4.7933,4.793,4.7932,4.7932,4.7933,4.7925,4.7925,4.7924,4.7924,0,4.7757,4.7766,4.7776,4.7789,4.7798,4.7808,4.782,4.7823,4.7842,4.7849,4.7859,4.7867,4.7881,4.7891,4.7903,4.7911,4.7921,4.7923,4.7923,4.7919,4.7914,4.7917,4.7934,4.7922,4.7923,4.7923,4.7923,4.7923,4.7741,4.7745,4.7762,4.7773,4.7784,4.7794,4.78,4.7813,4.7822,4.7836,4.7845,4.7855,4.7869,4.7886,4.7894,4.7902,4.7906,4.7906,4.7906,4.7906,4.7905,4.7913,4.7904,4.7904,4.7904,4.7904,4.7904,0,4.7723,4.7735,4.7745,4.7762,4.7771,4.7782,4.7795,4.7802,4.7811,4.7823,4.7833,4.7845,4.7856,4.7871,4.7882,4.7886,4.7891,4.7888,4.7888,4.789,4.79,4.7899,4.7884,4.7884,4.7884,4.7884,4.7884,4.7884,4.7715,4.7723,4.7734,4.7747,4.7759,4.777,4.7777,4.7788,4.7798,4.7812,4.7822,4.7832,4.7846,4.7859,4.7869,4.7873,4.7877,4.7873,4.7878,4.7887,4.7889,4.7891,4.789,4.7874,4.7874,4.7868,4.7868,4.7868]}]]